Aérodrome :
LOGIN :

S'inscrire | Disclaimer

   EN    FR    IT 

 










Légende :    VFR   VFR Marginal   IFR   IFR Intensif   IFR Très Intensif
Visi : 
Plafond : 
>= 8 km
>= 3000ft
5 à 8 km
1000 à 3000 ft
1500m à 5 km
500 à 1000 ft
800 à 1500m
200 à 500 ft
< 800m
< 200 ft
Symboles :   Orages  Brouillard  Fortes neiges  Fortes précipitations  Vent > 20 kt
SIGMETs :   Divers  Orages  Givrage  Turbulence  Onde Orograph.  Cendres Volcan.







- Altitude de l'aérodrome : 135 ft
- Code IATA : EDI
- Voir les cartes d'approche


EGPH - Edinburgh

DERNIER METAR :
  • 270350Z 06004KT CAVOK 14/12 Q1012

METARs EXPIRÉS :
  • 270320Z 06006KT CAVOK 14/12 Q1012
  • 270250Z 05006KT CAVOK 15/13 Q1012
  • 270220Z 04004KT CAVOK 16/13 Q1013
  • 270150Z AUTO 04005KT 9999 NCD 16/13 Q1013
  • 270120Z VRB03KT CAVOK 16/13 Q1013

TAF TAF EGPH
Valide du 27 à 00h jusqu'au 28 à 00h UTC


262300Z 2700/2724 07009KT 9999 FEW040
TEMPO 2712/2724 7000 SHRA
PROB40
TEMPO 2713/2722 2500 +SHRA +TSRA BKN012CB
BECMG 2719/2722 25013KT
ATIS : +44 131 339 2823
Pas de NOTAMs connus pour ce terrain.



MET'MAP, la Météo Aéronautique d'un coup d'oeil ! - Copyright ORBIFLY Décembre 2007 - Disclaimer

ORBIFLY MET'MAP TEAM :

Programmation & Développement : Alexandra Zaïnal
Conception & Développement : Baudouin d'Aumeries
Co-Programmation & Développement : Marc-Olivier Méhu
Soutien technique & logistique : Manuel Goepfert

Contact : metmap@orbifly.com




SOURCES & CREDITS :

   NOAA